Location: Hastringsfeld
(50.9620°N, 10.4787°E)
Time: 03:41:38
(UTC+00:00)

NOSS 2-2 (D) - Pass Details

Date: 26 September 2023
Orbit: 414 x 1757 km, 63.3° (Epoch: 29 October)

Event Time Altitude Azimuth Distance (km) Brightness Sun altitude
Exits shadow 03:12:48 25° 296° (WNW) 1,393 5.0 -18.8°
Maximum altitude 03:15:24 52° 231° (SW) 970 4.1 -18.4°
Drops below altitude 10° 03:21:33 10° 158° (SSE) 2,800 6.9 -17.5°
Sets 03:24:43 0° 154° (SSE) 3,989 7.8 -17.1°
